TimeCDT,TemperatureF,Dew PointF,Humidity,Sea Level PressureIn,VisibilityMPH,Wind Direction,Wind SpeedMPH,Gust SpeedMPH,PrecipitationIn,Events,Conditions,WindDirDegrees,DateUTC
12:53 AM,57.9,35.1,42,29.92,10.0,South,11.5,-,N/A,,Clear,190,2013-10-08 05:53:00
1:53 AM,57.0,36.0,45,29.91,10.0,South,13.8,-,N/A,,Clear,180,2013-10-08 06:53:00
2:53 AM,57.0,35.1,44,29.89,10.0,South,12.7,-,N/A,,Clear,180,2013-10-08 07:53:00
3:53 AM,55.9,34.0,44,29.87,10.0,South,13.8,-,N/A,,Clear,180,2013-10-08 08:53:00
4:53 AM,54.0,33.1,45,29.87,10.0,South,11.5,-,N/A,,Clear,180,2013-10-08 09:53:00
5:53 AM,53.1,33.1,47,29.87,10.0,South,11.5,-,N/A,,Clear,180,2013-10-08 10:53:00
6:53 AM,51.1,32.0,48,29.88,10.0,South,11.5,-,N/A,,Clear,180,2013-10-08 11:53:00
7:53 AM,52.0,32.0,47,29.89,10.0,South,10.4,-,N/A,,Clear,180,2013-10-08 12:53:00
8:53 AM,55.0,33.1,43,29.90,10.0,South,11.5,-,N/A,,Clear,170,2013-10-08 13:53:00
9:53 AM,64.9,30.0,27,29.86,10.0,South,17.3,23.0,N/A,,Clear,190,2013-10-08 14:53:00
10:53 AM,73.9,28.9,19,29.83,10.0,South,24.2,31.1,N/A,,Clear,190,2013-10-08 15:53:00
11:53 AM,78.1,27.0,15,29.81,10.0,South,28.8,36.8,N/A,,Clear,190,2013-10-08 16:53:00
12:53 PM,80.1,27.0,14,29.79,10.0,SSW,32.2,38.0,N/A,,Clear,200,2013-10-08 17:53:00
1:53 PM,82.0,27.0,13,29.75,10.0,South,20.7,33.4,N/A,,Clear,190,2013-10-08 18:53:00
2:53 PM,84.0,26.1,12,29.72,10.0,South,25.3,34.5,N/A,,Clear,180,2013-10-08 19:53:00
3:53 PM,84.9,26.1,12,29.70,10.0,South,26.5,34.5,N/A,,Clear,190,2013-10-08 20:53:00
4:53 PM,82.9,21.9,11,29.70,10.0,South,25.3,36.8,N/A,,Clear,190,2013-10-08 21:53:00
5:53 PM,82.9,25.0,12,29.70,10.0,South,24.2,34.5,N/A,,Clear,180,2013-10-08 22:53:00
6:53 PM,78.1,27.0,15,29.71,10.0,South,19.6,27.6,N/A,,Clear,170,2013-10-08 23:53:00
7:53 PM,73.9,27.0,18,29.73,10.0,South,15.0,-,N/A,,Clear,170,2013-10-09 00:53:00
8:53 PM,71.1,28.0,20,29.75,10.0,SSE,16.1,-,N/A,,Clear,160,2013-10-09 01:53:00
9:53 PM,68.0,30.9,25,29.73,10.0,South,17.3,23.0,N/A,,Clear,170,2013-10-09 02:53:00
10:53 PM,66.0,30.9,27,29.74,10.0,South,16.1,24.2,N/A,,Clear,170,2013-10-09 03:53:00
11:53 PM,63.0,32.0,31,29.74,10.0,South,12.7,-,N/A,,Clear,180,2013-10-09 04:53:00